EW2817 Weather Reports


time (UTC)temp
C
wind
direction
speed
KPH
gust
KPH
rain 1hr
cm
rain 24hr
cm
rain mn
cm
humidity
%
barometer
mb
20260503003542 11 0 0.0 0.0 0.00 0.00 0.00 83 989.6
20260503002041 12 0 0.0 0.0 0.00 0.00 0.00 81 989.4
20260503000539 12 0 0.0 0.0 0.00 0.00 0.00 78 989.1
20260502235040 13 0 0.0 0.0 0.00 0.00 0.00 77 988.8
20260502233539 13 0 0.0 0.0 0.00 0.00 0.00 77 988.5
20260502230539 13 0 0.0 0.0 0.00 0.00 0.00 74 988.2
20260502225037 13 0 0.0 0.0 0.00 0.00 0.00 72 988.2
20260502223537 14 0 0.0 0.0 0.00 0.00 0.00 67 988.1
20260502222035 14 0 0.0 0.0 0.00 0.00 0.00 66 988.1
20260502220535 14 0 0.0 0.0 0.00 0.00 0.00 66 988.0
20260502215033 14 0 0.0 0.0 0.00 0.00 0.00 69 988.0
20260502213534 14 0 0.0 0.0 0.00 0.00 0.00 69 988.0
20260502212033 14 0 0.0 0.0 0.00 0.00 0.00 69 988.0
20260502210531 14 0 0.0 0.0 0.00 0.00 0.00 69 988.1
20260502205030 14 0 0.0 0.0 0.00 0.00 0.00 67 988.3
20260502203529 14 0 0.0 0.0 0.00 0.00 0.00 68 988.2
20260502202027 14 0 0.0 0.0 0.00 0.00 0.00 68 988.2
20260502200526 15 0 0.0 0.0 0.00 0.00 0.00 67 988.2
20260502195028 15 0 0.0 0.0 0.00 0.00 0.00 68 988.2
20260502193527 15 0 0.0 0.0 0.00 0.00 0.00 70 988.4
20260502192025 15 0 0.0 0.0 0.00 0.00 0.00 68 988.3
20260502190526 15 0 0.0 0.0 0.00 0.00 0.00 68 988.4
20260502185025 14 0 0.0 0.0 0.00 0.00 0.00 71 988.5
20260502183527 14 0 0.0 0.0 0.00 0.00 0.00 70 988.7
20260502182021 14 0 0.0 0.0 0.00 0.00 0.00 70 988.9
20260502180522 14 0 0.0 0.0 0.00 0.00 0.00 71 988.9
20260502170516 13 0 0.0 0.0 0.00 0.00 0.00 74 989.4
20260502162015 13 0 0.0 0.0 0.00 0.00 0.00 79 990.3
20260502152010 13 0 0.0 0.0 0.00 0.00 0.00 81 989.8
20260502150511 13 0 0.0 0.0 0.00 0.00 0.00 79 990.3
20260502130500 11 0 0.0 0.0 0.00 0.00 0.00 86 989.5
20260502121958 11 0 0.0 0.0 0.00 0.00 0.00 89 989.4
20260502120458 11 0 0.0 0.0 0.00 0.00 0.00 90 989.3
20260502114956 11 0 0.0 0.0 0.00 0.00 0.00 91 989.3
20260502111956 11 0 0.0 0.0 0.00 0.00 0.00 92 989.2
20260502110456 11 0 0.0 0.0 0.00 0.00 0.00 92 989.4
20260502103455 11 0 0.0 0.0 0.00 0.00 0.00 92 989.4
20260502100453 11 0 0.0 0.0 0.00 0.00 0.00 92 989.7
20260502090451 11 0 0.0 0.0 0.00 0.00 0.00 93 989.3
20260502070449 11 0 0.0 0.0 0.00 0.00 0.00 91 988.7
20260502063449 11 0 0.0 0.0 0.00 0.00 0.00 91 988.8
20260502061949 11 0 0.0 0.0 0.00 0.00 0.00 91 988.8
20260502060449 11 0 0.0 0.0 0.00 0.00 0.00 91 988.6
20260502053443 11 0 0.0 0.0 0.00 0.00 0.00 91 989.0
20260502051941 11 0 0.0 0.0 0.00 0.00 0.00 91 988.9
20260502050439 11 0 0.0 0.0 0.00 0.00 0.00 91 989.1
20260502044939 11 0 0.0 0.0 0.00 0.00 0.00 90 989.2
20260502043437 11 0 0.0 0.0 0.00 0.00 0.00 90 989.3
20260502041937 11 0 0.0 0.0 0.00 0.00 0.00 89 989.3
20260502034934 11 0 0.0 0.0 0.00 0.00 0.00 88 989.5
20260502033434 11 0 0.0 0.0 0.00 0.00 0.00 88 989.7
20260502031935 11 0 0.0 0.0 0.00 0.00 0.00 88 989.5
20260502024928 12 0 0.0 0.0 0.00 0.00 0.00 86 989.6
20260502023430 12 0 0.0 0.0 0.00 0.00 0.00 85 989.6
20260502021926 12 0 0.0 0.0 0.00 0.00 0.00 84 989.6
20260502014922 12 0 0.0 0.0 0.00 0.00 0.00 83 989.6
20260502013422 12 0 0.0 0.0 0.00 0.00 0.00 82 989.5
20260502011920 13 0 0.0 0.0 0.00 0.00 0.00 81 989.5
20260502010420 13 0 0.0 0.0 0.00 0.00 0.00 81 989.4